Flag for United Kingdom Weather past 2 weeks in Northampton, England, United Kingdom

Now
48 °F

Rain showers. Passing clouds.


Feels Like: 42 °F
Forecast: 41 / 59 °F
Wind: 16 mph from Southwest

Location: Wittering

Current Time: May 6, 2015 at 5:29:29 AM

Latest Report: May 6, 2015 at 3:50 AM


Visibility: 3 mi

Pressure: 29.47 "Hg

Humidity: 87%

Dew point: 45 °F

Location of NorthamptonLocation

Historic Weather in Northampton — Graph

°F

Northampton temperature yesterday

Maximum temperature yesterday: 59 °F (at 9:50 AM)
Minimum temperature yesterday: 50 °F (at 11:50 PM)
Average temperature yesterday: 55 °F

Past Weeks' High & Low Weather Summary

 TemperatureHumidityPressure
High66 °F (May 3, 2:50 PM)100% (Apr 21, 5:50 AM)30.60 "Hg (Apr 21, 5:50 AM)
Low34 °F (Apr 27, 5:50 AM)26% (Apr 27, 1:50 PM)29.09 "Hg (May 5, 7:50 AM)
Average49 °F72%29.83 "Hg
* Reported Apr 21 3:50 AM — May 6 3:50 AM, Northampton, Weather by CustomWeather, © 2015

Note: Actual official high and low records may vary slightly from our data, if they occured in-between our weather recording intervals... More about our weather records

Advertising

Northampton weather history for previous 24 hours

 ConditionsComfort  
Time TempWeatherWind HumidityBarometerVisibility
3:50 AM
Wed, May 6
48 °FRain showers. Passing clouds.16 mph87%29.47 "Hg3 mi
2:50 AM50 °FPassing clouds.18 mph82%29.47 "HgN/A
1:50 AM48 °FPassing clouds.20 mph87%29.47 "HgN/A
12:50 AM50 °FPassing clouds.21 mph88%29.47 "HgN/A
11:50 PM
Tue, May 5
50 °FPassing clouds.17 mph88%29.47 "HgN/A
10:50 PM52 °FPassing clouds.20 mph77%29.47 "HgN/A
9:50 PM52 °FPassing clouds.24 mph72%29.45 "HgN/A
8:50 PM54 °FPassing clouds.24 mph67%29.42 "HgN/A
7:50 PM54 °FPassing clouds.31 mph72%29.39 "HgN/A
6:50 PM55 °FPartly sunny.33 mph63%29.39 "HgN/A
5:50 PM57 °FPartly sunny.32 mph59%29.39 "HgN/A
4:50 PM57 °FPartly sunny.31 mph59%29.39 "HgN/A
3:50 PM57 °FPartly sunny.29 mph63%29.39 "HgN/A
2:50 PM59 °FScattered clouds.30 mph55%29.36 "HgN/A
1:50 PM57 °FPartly sunny.31 mph55%29.33 "HgN/A
12:50 PM55 °FScattered clouds.30 mph63%29.30 "HgN/A
11:50 AM55 °FPartly sunny.33 mph67%29.24 "HgN/A
10:50 AM59 °FBroken clouds.26 mph77%29.18 "HgN/A
9:50 AM59 °FBroken clouds.23 mph88%29.12 "HgN/A
8:50 AM57 °FRain showers. Partly sunny.14 mph100%29.12 "Hg3 mi
7:50 AM57 °FPartly sunny.10 mph100%29.09 "HgN/A
6:50 AM55 °FFog.10 mph100%29.12 "Hg3 mi
5:50 AM54 °FFog.10 mph100%29.12 "Hg2 mi
Weather by CustomWeather, © 2015

See weather overviewHow to use our weather pages